Weather History for KMQE - May, 2013

Change the Weather History Date:

Monday, May 13, 2013

  Actual Average (KBOS) Record (KBOS)
Temperature  
Mean Temperature 49 °F 57 °F  
Max Temperature 60 °F 65 °F 87 °F (1947)
Min Temperature 41 °F 49 °F 38 °F (1882)
Degree Days  
Heating Degree Days 16 8  
Month to date heating degree days 133  
Since 1 July heating degree days 5514  
Cooling Degree Days 0 0  
Month to date cooling degree days 0  
Year to date cooling degree days 3  
Moisture  
Dew Point 28 °F    
Average Humidity 45    
Maximum Humidity 62    
Minimum Humidity 31    
Precipitation  
Precipitation 0.00 in 0.10 in 3.84 in (2006)
Month to date precipitation 1.36  
Year to date precipitation 16.03  
Sea Level Pressure  
Sea Level Pressure 29.96 in    
Wind  
Wind Speed 12 mph (West)    
Max Wind Speed 17 mph    
Max Gust Speed 28 mph    
T = Trace of Precipitation, MM = Missing Value Source: NWS Daily Summary

Daily Weather History Graph

Daily Weather History Graph

Search for Another Location

Airport or City:

Trip Planner

Search our weather history database for the weather conditions in past years. The results will help you decide how hot, cold, wet, or windy it might be!

Date:

Astronomy

May. 13, 2013 Rise Set
Actual Time 5:25 AM EDT 7:56 PM EDT
Civil Twilight 4:53 AM EDT 8:28 PM EDT
Nautical Twilight 4:13 AM EDT 9:08 PM EDT
Astronomical Twilight 3:29 AM EDT 9:53 PM EDT
Moon 8:08 AM EDT (5/13) 11:04 PM EDT (5/13)
Length of Visible Light 15h 35m
Length of Day
14h 31m
Waxing Crescent, 12% of the Moon is Illuminated
May 13
Waxing Crescent
May 18
First Quarter
May 25
Full
May 31
Last Quarter
Jun 8
New

Hourly Weather History & Observations

Time (EDT) Temp. Windchill Dew Point Humidity Pressure Visibility Wind Dir Wind Speed Gust Speed Precip Events Conditions
12:54 AM 46.9 °F - 28.9 °F 50% 29.86 in - West 13.8 mph 23.0 mph N/A   Unknown
1:54 AM 46.0 °F 41.0 °F 28.9 °F 51% 29.87 in - West 10.4 mph - N/A   Unknown
2:54 AM 44.1 °F 37.7 °F 30.0 °F 58% 29.88 in - West 12.7 mph - N/A   Unknown
3:54 AM 42.1 °F 36.1 °F 28.9 °F 60% 29.88 in - West 10.4 mph - N/A   Unknown
4:54 AM 42.1 °F 35.2 °F 28.9 °F 60% 29.91 in - West 12.7 mph - N/A   Unknown
5:54 AM 41.0 °F 35.2 °F 28.9 °F 62% 29.93 in - WSW 9.2 mph - N/A   Unknown
6:54 AM 43.0 °F 38.8 °F 30.0 °F 60% 29.95 in - WSW 6.9 mph - N/A   Unknown
7:54 AM 46.9 °F - 30.9 °F 54% 29.95 in - West 12.7 mph 18.4 mph N/A   Unknown
8:54 AM 50.0 °F - 28.0 °F 43% 29.96 in - West 12.7 mph 24.2 mph N/A   Unknown
9:54 AM 52.0 °F - 28.0 °F 40% 29.97 in - West 15.0 mph 25.3 mph N/A   Unknown
10:54 AM 52.0 °F - 27.0 °F 38% 29.98 in - West 12.7 mph 19.6 mph N/A   Unknown
11:54 AM 55.9 °F - 28.9 °F 36% 29.98 in - WSW 11.5 mph 18.4 mph N/A   Unknown
12:54 PM 55.9 °F - 27.0 °F 33% 29.97 in - SW 11.5 mph 17.3 mph N/A   Unknown
1:54 PM 57.9 °F - 27.0 °F 31% 29.97 in - West 10.4 mph 24.2 mph N/A   Unknown
2:54 PM 57.9 °F - 27.0 °F 31% 29.96 in - West 16.1 mph 27.6 mph N/A   Unknown
4:54 PM 57.9 °F - 27.0 °F 31% 29.94 in - WNW 17.3 mph 23.0 mph N/A   Unknown
5:54 PM 53.1 °F - 25.0 °F 34% 29.96 in - WNW 9.2 mph 18.4 mph N/A   Unknown
6:54 PM 53.1 °F - 25.0 °F 34% 29.97 in - WNW 13.8 mph 21.9 mph N/A   Unknown
8:54 PM 46.9 °F - 24.1 °F 41% 30.03 in - NNW 11.5 mph 19.6 mph N/A   Unknown
9:54 PM 46.0 °F 41.9 °F 26.1 °F 46% 30.05 in - NW 8.1 mph - N/A   Unknown
10:54 PM 45.0 °F 39.7 °F 27.0 °F 49% 30.04 in - NW 10.4 mph - N/A   Unknown
11:54 PM 44.1 °F 39.0 °F 27.0 °F 51% 30.03 in - NW 9.2 mph - N/A   Unknown